PD3LKN Weather Reports


time (UTC)temp
C
wind
direction
speed
KPH
gust
KPH
rain 1hr
cm
rain 24hr
cm
rain mn
cm
humidity
%
barometer
mb
20260504232004 11 160 9.7 9.7 0.00 0.00 0.00 90 1017.3
20260504231004 11 145 6.4 8.0 0.00 0.00 0.00 90 1017.6
20260504230005 11 200 8.0 8.0 0.00 0.00 0.00 90 1017.3
20260504225004 11 200 8.0 11.3 0.00 0.00 0.00 90 1017.3
20260504224004 11 190 11.3 11.3 0.00 0.00 0.00 90 1017.6
20260504223004 11 170 9.7 11.3 0.00 0.00 0.00 90 1017.6
20260504222004 11 120 8.0 9.7 0.00 0.00 0.00 90 1017.3
20260504221004 11 152 9.7 9.7 0.00 0.00 0.00 90 1017.3
20260504220004 12 105 9.7 9.7 0.00 0.00 0.00 90 1017.6
20260504215004 12 112 8.0 9.7 0.00 0.00 0.00 90 1017.6
20260504214004 12 135 8.0 9.7 0.00 0.00 0.00 90 1017.9
20260504213004 12 128 6.4 9.7 0.00 0.00 0.00 90 1017.9
20260504212004 12 138 9.7 9.7 0.00 0.00 0.00 90 1017.9
20260504211004 12 134 9.7 9.7 0.00 0.00 0.00 91 1017.9
20260504210004 12 129 4.8 4.8 0.00 0.00 0.00 91 1017.6
20260504205004 12 141 4.8 4.8 0.00 0.00 0.00 92 1017.6
20260504204004 12 141 4.8 4.8 0.00 0.00 0.00 92 1017.6
20260504203004 12 140 4.8 8.0 0.00 0.00 0.00 92 1017.7
20260504201005 12 146 8.0 8.0 0.00 0.00 0.00 92 1017.6
20260504200004 12 146 8.0 9.7 0.00 0.00 0.00 92 1017.6
20260504195003 12 134 9.7 9.7 0.00 0.00 0.00 92 1017.3
20260504194004 12 157 4.8 4.8 0.00 0.00 0.00 92 1017.3
20260504193004 12 136 3.2 3.2 0.00 0.00 0.00 92 1017.3
20260504192004 12 110 6.4 11.3 0.00 0.00 0.00 91 1017.3
20260504191004 13 170 11.3 11.3 0.00 0.00 0.00 90 1017.3
20260504190004 13 158 11.3 11.3 0.00 0.00 0.00 90 1017.3
20260504185004 13 184 11.3 11.3 0.00 0.00 0.00 90 1017.3
20260504184004 13 184 4.8 11.3 0.00 0.00 0.00 90 1017.3
20260504183004 13 129 11.3 11.3 0.00 0.00 0.00 90 1017.3
20260504182004 13 151 11.3 11.3 0.00 0.00 0.00 89 1016.9
20260504181004 13 151 11.3 11.3 0.00 0.00 0.00 89 1016.9
20260504180004 13 116 8.0 9.7 0.00 0.00 0.00 90 1016.9
20260504175004 13 138 9.7 9.7 0.00 0.00 0.00 88 1017.3
20260504173004 14 248 0.0 1.6 0.00 0.00 0.00 87 1017.3
20260504172006 15 116 1.6 1.6 0.00 0.00 0.00 87 1017.3
20260504171005 15 116 1.6 1.6 0.00 0.00 0.00 87 1017.3
20260504151005 15 224 8.0 9.7 0.00 0.00 0.00 92 1016.6
20260504141005 16 306 9.7 9.7 0.00 0.00 0.00 91 1016.9
20260504082005 15 32 3.2 3.2 0.00 0.28 0.00 90 1016.9
20260504081005 15 113 3.2 3.2 0.00 0.28 0.00 92 1016.9
20260504045006 12 296 1.6 1.6 0.00 0.33 0.00 99 1015.6
20260504043005 12 279 3.2 3.2 0.00 0.33 0.00 98 1015.6
20260504042005 12 324 3.2 3.2 0.00 0.33 0.00 98 1015.6
20260504034005 12 31 0.0 0.0 0.00 0.41 0.00 98 1015.2
20260504033005 12 30 0.0 0.0 0.00 0.48 0.00 98 1015.2
20260504032005 12 30 0.0 0.0 0.00 0.48 0.00 98 1015.2
20260504030004 12 31 0.0 0.0 0.00 0.48 0.00 98 1015.2
20260504025005 12 31 0.0 0.0 0.00 0.48 0.00 98 1015.2
20260504024005 12 31 0.0 0.0 0.00 0.48 0.00 98 1015.2
20260504023005 13 30 0.0 0.0 0.00 0.48 0.00 98 1015.2
20260504021005 13 31 0.0 3.2 0.00 0.48 0.00 98 1015.2
20260504020005 13 30 3.2 3.2 0.00 0.48 0.00 98 1014.9
20260504015004 13 30 3.2 3.2 0.00 0.48 0.00 98 1014.9
20260504014005 13 31 0.0 0.0 0.00 0.48 0.00 98 1015.2
20260504013005 13 29 0.0 0.0 0.00 0.48 0.00 98 1015.6
20260504011005 13 30 0.0 3.2 0.00 0.48 0.00 98 1015.2
20260504010005 13 30 3.2 3.2 0.00 0.48 0.00 98 1015.2
20260504005005 13 31 3.2 3.2 0.00 0.48 0.00 97 1014.9
20260504004004 13 31 3.2 3.2 0.00 0.48 0.00 97 1014.9
20260504003005 13 47 3.2 3.2 0.00 0.48 0.00 97 1015.2
20260504002005 13 47 3.2 3.2 0.00 0.48 0.00 97 1015.2
20260504000005 13 71 4.8 4.8 0.00 0.48 0.00 97 1015.2
20260503234005 13 44 3.2 4.8 0.00 0.48 0.00 97 1015.2